User: anonymous   Login
Location: Unspecified
(0.0000°N, 0.0000°E)
Time: 08:43:40
(UTC+02:00)
Language:

DELTA 2 R/B (1) - Orbit

View from above orbital plane
View from above orbital plane
View from above satellite
View from above satellite

Ground track
Ground track

The orbit data is extracted from the following two-line orbital elements,

1 27665U 03005C   17087.31460108 -.00000014 +00000-0 +28198-4 0  9998
2 27665 039.5751 162.0501 0007865 100.6579 013.4645 14.28438704739279
Epoch (UTC): 28 March 2017 07:33:01
Eccentricity: 0.0007865
inclination: 39.5751°
perigee height: 791 km
apogee height: 802 km
right ascension of ascending node: 162.0501°
argument of perigee: 100.6579°
revolutions per day: 14.28438704
mean anomaly at epoch: 13.4645°
orbit number at epoch: 73927

The dashed part of the orbit path shows where the satellite is in the earth's shadow,  

DLR